Вернуться в каталог

FENGYUN 1C DEB

АктивенSSO
NORAD 30984·DEBRIS·🇨🇳 China

Запущен May 10, 1999 с Taiyuan Satellite Launch Center

Loading…

Ближайшие Пролёты (ближайшие 24 часа)

TLE

СвежийSource: Space-Track

Эпоха: Sep 14, 2026, 07:57 UTC

1 30984U 99025BCA 26257.33185395  .00001477  00000-0  34258-3 0  9992
2 30984  98.2373 293.5775 0123492 240.6546 118.2269 14.51998689991619

Отслеживайте FENGYUN 1C DEB в реальном времени с AllMySat

Download on the App Store